Location: Newark
(42.3706°N, 7.7003°W)
Time: 18:57:23
(UTC+00:00)

X-37B - Visible Passes

Search period start: 27 September 2020 00:00
Search period end: 07 October 2020 00:00
Orbit: 386 x 387 km, 45.0° (Epoch: 18 September)

Date Brightness Start Highest point End Pass type
(mag) Time Alt. Az. Time Alt. Az. Time Alt. Az.
30 Sep 3.1 19:29:24 10° SSE 19:29:30 10° SSE 19:29:30 10° SSE visible
01 Oct 2.9 20:05:28 10° SW 20:06:26 17° SSW 20:06:26 17° SSW visible
02 Oct 2.1 19:07:30 10° SSW 19:09:59 21° SE 19:10:55 19° ESE visible
02 Oct 4.0 20:43:11 10° WSW 20:43:12 10° WSW 20:43:12 10° WSW visible
03 Oct 0.8 19:44:39 10° WSW 19:47:32 59° S 19:47:32 59° S visible
04 Oct 1.4 18:46:20 10° SW 18:49:18 36° SSE 18:51:46 13° E visible
04 Oct 3.0 20:22:42 10° W 20:24:03 23° W 20:24:03 23° W visible
05 Oct 0.5 19:24:03 10° WSW 19:27:14 85° NNW 19:28:10 42° ENE visible
06 Oct 2.0 20:02:15 10° W 20:04:31 38° WNW 20:04:31 38° WNW visible
